Miscellaneous Local Product
Issued by NWS Hastings, NE

Home | Current Version | Previous Version | Text Only | Print | Product List | Glossary On
Versions: 1 2 3 4 5 6 7 8 9 10 11 12 13 14 15 16 17 18 19 20 21 22 23 24 25 26 27 28 29 30 31 32 33 34 35 36 37 38 39 40 41 42 43 44 45 46 47 48 49 50
000
AXUS43 KGID 021102
MISGRI

GID CWA HOURLY WEATHER ROUNDUP
NATIONAL WEATHER SERVICE HASTINGS NE
600 AM CDT WED SEP 02 2015

NOTE: "FAIR" INDICATES FEW OR NO CLOUDS BELOW 12,000 FEET WITH NO
SIGNIFICANT WEATHER AND/OR OBSTRUCTIONS TO VISIBILITY.

...SOUTH CENTRAL NEBRASKA...

CITY           SKY/WX    TMP DP  RH WIND       PRES   REMARKS
GRAND ISLAND   CLEAR     69  62  78 S6        29.88S
HASTINGS       CLEAR     69  61  75 S5        29.89S
KEARNEY        CLEAR     64  57  77 S3        29.89R
ORD            CLEAR     60  59  96 CALM      29.85S
YORK           CLEAR     68  66  94 S9        29.88F
AURORA         CLEAR     69  66  90 S5        29.88S
LEXINGTON      CLEAR     62  59  92 CALM      29.89S
HOLDREGE       CLEAR     65  57  75 S6        29.89S
HEBRON         CLEAR     73  63  72 S7        29.90S

...NEBRASKA PANHANDLE...

CITY           SKY/WX    TMP DP  RH WIND       PRES   REMARKS
CHADRON        MOCLDY    56  46  69 SW7       29.89R
ALLIANCE       PTCLDY    54  46  74 CALM      29.95R
SCOTTSBLUFF    PTCLDY    56  50  80 N5        29.97S
SIDNEY         PTCLDY    60  43  53 NW7       29.99S

...WESTERN AND NORTH CENTRAL NEBRASKA...

CITY           SKY/WX    TMP DP  RH WIND       PRES   REMARKS
VALENTINE      CLEAR     58  56  93 W6        29.85S
ONEILL         CLEAR     65  64  96 S6        29.85S
BROKEN BOW     CLEAR     61  58  90 CALM      29.88F
IMPERIAL       CLEAR     62  56  80 CALM      29.92F
NORTH PLATTE   CLEAR     60  58  92 SE3       29.90F
MCCOOK         CLEAR     60  57  89 S3        29.90S

...EASTERN NEBRASKA...

CITY           SKY/WX    TMP DP  RH WIND       PRES   REMARKS
NORFOLK        CLEAR     63  62  97 E5        29.85S FOG
SO SIOUX CITY  CLEAR     70  64  81 SE8       29.87S
TEKAMAH        CLEAR     70  68  93 SE8       29.88S
COLUMBUS       CLEAR     72  63  73 S5        29.87S
ALBION         CLEAR     67  62  83 SE3       29.86F
OMAHA EPPLEY   PTCLDY    74  69  85 S9        29.90S
OFFUTT AFB     PTCLDY    73  68  83 SE12      29.90S
MILLARD        CLEAR     72  69  89 SE3       29.90S
LINCOLN        CLEAR     73  67  81 S9        29.89S
NEBRASKA CITY  MOCLDY    72  66  82 S9        29.92S
BEATRICE       PTCLDY    73  66  80 S8        29.91S
FALLS CITY     CLOUDY    72  68  87 E6        29.94R

...NORTHERN KANSAS...

CITY           SKY/WX    TMP DP  RH WIND       PRES   REMARKS
GOODLAND       CLEAR     65  56  72 SW7       29.97S
HILL CITY      PTCLDY    73  57  57 SW8       29.90F
NORTON         SUNNY     68  54  60 SW7       29.89S
PHILLIPSBURG   CLEAR     75  57  53 CALM      29.89S
SMITH CENTER   CLEAR     68  57  68 S7        29.90F
HAYS           CLEAR     73  55  53 S13       29.92F
RUSSELL        CLEAR     75  60  59 S14       29.91S
CONCORDIA      CLEAR     74  63  68 S16       29.91S
SALINA         MOCLDY    78  62  57 S13       29.92F
TOPEKA         PTCLDY    74  66  76 S7        29.96S



USA.gov is the U.S. government's official web portal to all federal, state and local government web resources and services.